Regional Weather Roundup
Issued by NWS Wakefield, VA

Home | Current Version | Previous Version | Graphics & Text | Print | Product List | Glossary On
Versions: 1 2 3 4 5 6 7 8 9 10 11 12 13 14 15 16 17 18 19 20 21 22 23 24 25 26 27 28 29 30 31 32 33 34 35 36 37 38 39 40 41 42 43 44 45 46 47 48 49 50
000
ASUS41 KAKQ 052015
RWRAKQ

REGIONAL WEATHER ROUNDUP
NATIONAL WEATHER SERVICE WAKEFIELD VA
400 PM EDT SUN JUL 05 2015

Note: "fair" indicates few or no clouds below 12,000 feet with no
significant weather and/or obstructions to visibility. * = Denotes
station may not report precipitation (e.g., rain,snow,etc.),
thunder or fog.

VAZ042-051-052>054-056-052100-
NORTHERN VIRGINIA

CITY           SKY/WX    TMP DP  RH WIND       PRES   REMARKS
WASH NATIONAL  PTSUNNY   85  68  56 CALM      30.12F
DULLES         PTSUNNY   80  69  69 S5        30.12F
FORT BELVOIR   MOSUNNY   81  70  70 SE5       30.11F
QUANTICO       MOSUNNY   82  70  66 CALM      30.11F
FREDERICKSBRG* PTSUNNY   83  72  67 CALM      30.10F
STAFFORD*      PTSUNNY   80  70  70 E6        30.15F
WARRENTON      MOSUNNY   83  73  72 CALM      30.12F
CULPEPER*      PTSUNNY   79  70  73 CALM      30.12F
MANASSAS*      CLOUDY    81  72  74 CALM      30.13S
LEESBURG*      PTSUNNY   82  72  69 SW8       30.12F
WINCHESTER     PTSUNNY   81  70  69 SE9       30.12F
FRONT ROYAL*   FAIR      81  70  69 S3        30.11F
LURAY*         MOCLDY    81  70  69 S5        30.12F
$$

VAZ048-049-060>072-079>083-052100-
CENTRAL AND SOUTH CENTRAL VIRGINIA

CITY           SKY/WX    TMP DP  RH WIND       PRES   REMARKS
RICHMOND       CLOUDY    82  72  71 E8        30.10F
CHESTERFIELD*  NOT AVBL
PETERSBURG*    PTSUNNY   85  76  74 E7        30.09F
HANOVER        PTSUNNY   82  71  69 VRB3      30.12F
TAPPAHANNOCK*  PTSUNNY   83  67  58 E5        30.12S
QUINTON*       NOT AVBL
CHARLOTTSVILLE CLOUDY    78  70  76 VRB5      30.13S
GORDONSVILLE*  CLOUDY    79  70  73 CALM      30.12F
ORANGE*        PTSUNNY   81  70  69 SE3       30.14S
LOUISA*        PTSUNNY   81  72  74 E3        30.11F
BUMPASS*       CLOUDY    81  71  71 E5        30.12F
FARMVILLE*     PTSUNNY   84  71  63 E5        30.08F
CREWE*         CLOUDY    78  75  90 CALM      30.10F
FORT PICKETT*  CLOUDY    78  74  87 N3        30.09F
CHASE CITY*    MOCLDY    87  74  64 CALM      30.08F HX  95
CLARKSVILLE*   FAIR      82  72  69 CALM      30.07F
SOUTH HILL*    PTSUNNY   87  72  61 CALM      30.13F
LAWRENCEVILLE* NOT AVBL
EMPORIA*         N/A     86  72  62 E3        30.08F
$$

VAZ088>098-052100-
SOUTHEAST VIRGINIA

CITY           SKY/WX    TMP DP  RH WIND       PRES   REMARKS
NORFOLK        PTSUNNY   81  71  71 E12       30.11S
VIRGINIA BEACH PTSUNNY   80  71  74 E10       30.11S
NORFOLK NAVAL  PTSUNNY   81  73  76 E12       30.12F
WEST POINT*    PTSUNNY   85  68  55 NE7       30.12F
SALUDA*        FAIR      80  72  76 E8        30.11F
NEWPORT NEWS   PTSUNNY   80  72  76 E9        30.11F
LANGLEY AFB    PTSUNNY   81  72  74 E13       30.10F
FORT EUSTIS    PTSUNNY   82  77  86 E10       30.09S
WILLIAMSBURG*  PTSUNNY   84  75  74 E3        30.11F
HR EXEC AP*    MOCLDY    82  75  78 E8        30.12F
FRANKLIN*      CLOUDY    84  74  73 E8        30.08F HAZE
WAKEFIELD      NOT AVBL
$$

VAZ020-022-025-037-045-052100-
WEST CENTRAL AND SOUTHWEST VIRGINIA

CITY           SKY/WX    TMP DP  RH WIND       PRES   REMARKS
STAUNTON*      CLOUDY    80  68  67 SE5       30.15F
WAYNESBORO*    CLOUDY    73  67  80 SE8       30.15F
HOT SPRINGS VA CLOUDY    70  70 100 SE9       30.22F
LYNCHBURG      PTSUNNY   79  71  76 VRB5      30.12F
DANVILLE       TSTM      73  66  78 VRB5G25   30.11R VSB 1/2
SOUTH BOSTON*  MOCLDY    82  72  71 MISG      30.08S
MARTINSVILLE   LGT RAIN  73  73 100 E3        30.11S
ROANOKE        PTSUNNY   78  69  73 SE9       30.12F
BLACKSBURG     LGT RAIN  76  69  79 SE8       30.15F
DUBLIN*        PTSUNNY   80  68  67 S6        30.12F
MARION*        MOSUNNY   81  64  57 E3        30.13F
HILLSVILLE*    RAIN      68  66  95 E3        30.15F
RICHLANDS*     FAIR      79  64  60 S8        30.09F
WISE*          CLOUDY    73  63  68 W5        30.13S
ABINGDON*      LGT RAIN  74  69  81 NW9       30.07S
$$

MDZ021>025-VAZ099-100-052100-
SOUTHERN MARYLAND AND THE DELMARVA PENINSULA

CITY           SKY/WX    TMP DP  RH WIND       PRES   REMARKS
PATUXENT RIVER PTSUNNY   80  67  64 SE8       30.12F
BAY BRIDGE APT   N/A     79  68  69 W6        30.13S
LEONARDTOWN    MOSUNNY   81  68  65 E6        30.14S
DOVER          SUNNY     79  69  70 E10       30.11F
GEORGETOWN     PTSUNNY   83  68  60 VRB5      30.12F
EASTON         MOSUNNY   84  72  65 CALM      30.15F
CAMBRIDGE      MOSUNNY   82  66  57 CALM      30.11F
SALISBURY      MOSUNNY   81  70  69 SE6       30.12S
OCEAN CITY     MOSUNNY   77  70  79 SE7       30.13F
WALLOPS ISLAND MOSUNNY   79  72  79 SE10      30.14S
ACCOMACK*      MOSUNNY   79  72  78 SE7       30.13S
$$

NCZ012>017-030>032-052100-
NORTH CENTRAL AND EASTERN NORTH CAROLINA

CITY           SKY/WX    TMP DP  RH WIND       PRES   REMARKS
ROANOKE RAPIDS MOCLDY    81  70  69 N6        30.07F
RALEIGH        PTSUNNY   90  70  51 S9G17     30.06F HX  95
ELIZABETH CITY MOSUNNY   84  75  74 E6        30.10F
AHOSKIE*       PTSUNNY  N/A N/A N/A E9        30.08F
EDENTON*         N/A     89  74  61 S7        30.09F HX  97
CURRITUCK*     MOSUNNY   78  75  89 E3        30.12S
KILL DEVIL HLS MOSUNNY   89  74  60 E8        30.10F HX  97
MANTEO         PTSUNNY   85  74  70 S10       30.11F
CAPE HATTERAS  SUNNY     83  76  79 SW13      30.13F
TARBORO*         N/A     91  72  53 SE9       30.08F HX  98
GOLDSBORO      MOSUNNY   89  71  55 S8        30.06F HX  95
WASHINGTON     MOSUNNY   89  72  57 S8        30.09F HX  95
GREENVILLE     MOSUNNY   90  70  51 SW9       30.09F HX  95
NEW BERN       SUNNY     90  71  53 S10G20    30.11F HX  96
WILMINGTON     SUNNY     89  70  53 SW14G21   30.10F
$$

VAZ048-052100-
ELSEWHERE

CITY           SKY/WX    TMP DP  RH WIND       PRES   REMARKS
HARRISBURG PA  CLOUDY    79  66  64 CALM      30.12F
BALTIMORE      PTSUNNY   81  67  62 CALM      30.11F
ANNAPOLIS      SUNNY     78  67  68 E8        30.11F
ANDREWS AFB    MOSUNNY   82  76  84 SE6       30.11F
PHILADELPHIA   MOSUNNY   83  62  49 S7        30.12S
HENDERSON NC   PTSUNNY   85  66  53 SE15G21   30.08F
GREENSBORO     PTSUNNY   86  68  54 S9G20     30.06F
ROCKY MOUNT    MOSUNNY   91  71  51 VRB7      30.06F HX  97
$$

VAZ100-052100-
MARINE

STATION/POSITION TIME  TEMP    WIND        PRES    WAVE   SWELL
                       AIR SEA DIR/SP/G            HT/PER HT/PER
                 (UTC) (F)     (DEG/KT/KT) (MB)    (FT/S) (FT/S)
BRANDYWINE LGT   1900   73 74  150/  6/  7 1020.9F
CAPE MAY NJ      1900   75 77  150/  6/  7 1020.5S
LEWES DE         1907   76 74  100/  9/ 11 1020.3F
15NM E FENWICK I 1950   74 76              1020.3F   3/ 7
OCEAN-CITY-INLET 1900   76 74  120/  7/  8 1020.4F
WACHAPREAGUE VA  1900   77 84   90/  5/  8 1020.5S
THOMAS POINT MD  2000          270/  1       N/A
GOOSES REEF MD   2000   79 83  120/  2/  4 1021.0F
COVE POINT MD    1900   76     180/  6/  8 1020.8F
SOLOMONS ISLAND  1900      81                N/A
BISHOPS HEAD MD  1900   78     250/  4/  4 1020.0F
PINEY POINT MD   1900          170/  7/  9   N/A
CAMBRIDGE MD     1900   80 79   20/  3/  3 1019.9F
LEWISETTA VA     1900   77 80  100/  7/  8 1020.0F
RAPPAHANNOCK LGT 1900          360/  2/  3 1020.7S
STINGRAY PT      2000   79 83  120/  4/  6 1019.8F   0
YORK RVR RNG VA  1900   78     130/ 10/ 12 1019.5F
YORKTOWN VA      1900   79 79  110/ 10/ 12 1019.7F
JAMESTOWN VA     2000   82 84   90/  8/ 12   N/A
DOMINION TERM VA 1900   78      80/ 12/ 16 1019.8F
KIPTOPEKE VA     1900      82  140/  9/ 12   N/A
CHES BAY BRIDGE  1900   76 75   70/ 12/ 13 1019.5F
CAPE HENRY VA    1900   77     100/  9/ 10   N/A
CHESAPEAKE LGHT  1900   76     100/  7/  8 1020.9S
WILLOUBY STN VA  1900   77      80/ 11/ 12 1020.8F
CAPE HENRY BUOY  1928      79                N/A     2/ 6
1ST LANDING BUOY 2000      79              1019.4F   1/ 3
CAPE CHARLES BUO 1926      77                N/A     2/ 9   2/ 9
OFFSHORE WE BUOY 1911      78                N/A     3/ 6   3/ 6
64NM E OF VA BCH 1950   78 78  140/  4/  6 1019.9R   4/ 7   3/ 7
DUCK PIER NC     1900   83 79  110/  7/  7   N/A
44100 DUCK FRF   1924      81                N/A     2/ 6
44056 DUCK FRF   1911      80                N/A     2/14
OREGON INLET NC  1900   83 78  180/  9/ 11 1019.9F
HATTERAS NC      1900   82 80  200/  7/ 11 1020.2F
DIAMOND SHLS NC  1950   81 82  210/ 14/ 16 1020.1F   3/ 4   2/ 8
CAPE LOOKOUT NC  2000   82     210/ 14/ 16 1019.8F
$$



USA.gov is the U.S. government's official web portal to all federal, state and local government web resources and services.